loading
DOY 198 | 2024-07-16T13:25:23Z

SCOUT X-4 DEB, 3750

Orbit data source: Space-Track

SCOUT X-4 DEB, 3750 is space debris in LEO originally from a launch on Thu, 19 Dec 1963 UTC launched from the Air Force Western Test Range (AFWTR). Debris objects in space refer to the collection of defunct objects orbiting the Earth. Examples of debris include non-operational satellites, rocket bodies, and fragments generated from explosions, collisions, or faulty payload assembly.

Loading next visibility...
Loading greatness...
SCOUT X-4 DEB details
NORAD ID3750
COSPAR ID
1963-053J
Orbit
LEO
Last TLE update21 hours ago
Origin
Flag of USNASA LaRC (US)
ManufacturerUnknown
BusUnknown
MotorUnknown
MassWet unknown, Dry mass unknown
Launch date (UTC)
1963-12-19 (61 years ago)
Launch vehicleUnknown
Launch site
Air Force Western Test Range (AFWTR)
Object type
Payload
Rocket body
Debris
Radar Cross SectionSmall (<0.1 m²)
Predictive object data (real-time)
Latitude-56.95559°
Longitude-59.90832°
Altitude710.449 km
Speed7.548 km/s
Apparent Right ascension11h 25m 33s
Apparent Declination-58° 48' 03"
Sunlit
Object is in daylight
Predictive observer data (real-time)
Local Sidereal Time02:04:25
Azimuth140.418° SSE
Elevation-58.702°
Doppler factor1
Orbital elements
Apogee1,004.55 km
Perigee552.48 km
Semi-major axis7,156.652 km
Eccentricity0.0315839
Inclination78.5742°
RAAN280.6401°
Arg. of periapsis173.4147°
True anomaly186.70121°
Mean anomaly187.1337°
Mean motion3.58491 °/min
BSTAR0.0060747
Period100.42 mins
Definitive object data (Epoch: 2024-07-15T16:13:30.758Z)
Latitude-0.00002°
Longitude103.25608°
Altitude1,008.583 km
Speed7.231 km/s
True Right ascension18h 42m 33s
True Declination0° 00' 00"
Sunlit
Object was in full shadow at TLE epoch
TLE from 21 hours ago
0 SCOUT X-4 DEB
1 03750U 63053J   24197.67605044  .00029270  00000-0  60747-2 0  9993
2 03750  78.5742 280.6401 0315839 173.4147 187.1337 14.33147941705950
Epoch: 2024-07-15T16:13Z
No data available

SCOUT X-4 DEB Visibility forecast

Observer location: 39.9160978°, -105.1181434

SCOUT X-4 DEB is not visible in the next 10 days
Span
Click to sort rows by Start time (UTC) header in descending order
Start Az.
Max El. time (UTC)
Max El. Az.
Max El.
End time (UTC)
End Az.